Kansas City International Airport Airport (MCI)

 

Airport Diagram
Current Weather/Forecast (MVFR Conditions)
METAR KMCI 241453Z 19018G27KT 10SM OVC023 11/07 A2985 RMK AO2 PK WND 19027/1444 SLP110 60000 T01110072 56013
TAF KMCI 241120Z 2412/2512 17012KT P6SM VCSH OVC015 WS020/21040KT FM241600 18013KT P6SM -RA OVC015 FM242000 18015G25KT 5SM -RA BR OVC007 FM242300 15012KT 4SM BR VCSH OVC003 FM250300 13010KT 4SM -SHRA VCTS OVC003CB

All Charts
General
Chart Name Download
AIRPORT DIAGRAM
TAKEOFF MINIMUMS
ALTERNATE MINIMUMS
HOT SPOT

Departures
Chart Name Download
CHIEF SEVEN
LAKES THREE
RACER SEVEN
ROYAL NINE
TIFTO SIX
WILDCAT FIVE

Arrivals
Chart Name Download
BRAYMER SIX
BRAYMER SIX, CONT.1
JHAWK SIX
JHAWK SIX, CONT.1
TYGER SIX
TYGER SIX, CONT.1

Approaches
Chart Name Download
ILS OR LOC RWY 01L
ILS OR LOC RWY 01R
ILS OR LOC RWY 09
ILS OR LOC RWY 19L
ILS OR LOC RWY 19R
ILS OR LOC RWY 27
ILS RWY 01R (SA CAT I)
ILS RWY 19R (SA CAT I)
ILS RWY 01R (CAT II - III)
ILS RWY 19R (CAT II - III)
RNAV (RNP) Z RWY 01L
RNAV (RNP) Z RWY 01R
RNAV (RNP) Z RWY 09
RNAV (RNP) Z RWY 19L
RNAV (RNP) Z RWY 19R
RNAV (RNP) Z RWY 27
RNAV (GPS) Y RWY 01L
RNAV (GPS) Y RWY 01R
RNAV (GPS) Y RWY 09
RNAV (GPS) Y RWY 19L
RNAV (GPS) Y RWY 19R
RNAV (GPS) Y RWY 27


Inbound Traffic (Arrivals)

No inbound traffic.


Outbound Traffic (Departures)

No outbound traffic.